Tracking 29494 objects as of 7-Sep-2024
HD Live streaming from Space Station
objects crossing your sky now

STARLINK-5451

Track STARLINK-5451 now!
10-day predictions
STARLINK-5451 is classified as:


NORAD ID: 54771
Int'l Code: 2022-175P
Perigee: 545.9 km
Apogee: 547.9 km
Inclination: 53.2 °
Period: 95.4 minutes
Semi major axis: 6917 km
RCS: Unknown
Launch date: December 17, 2022
Source: United States (US)
Launch site: AIR FORCE EASTERN TEST RANGE (AFETR)
Your satellite tracking list
Your tracking list is empty




NASA's NSSDC Master Catalog

Two Line Element Set (TLE):
1 54771U 22175P   24251.56335793  .00003116  00000-0  21374-3 0  9997
2 54771  53.2162 339.5548 0001464 110.3819 249.7330 15.08842537 97243
Source of the keplerian elements: AFSPC